Volver al catálogo

YAOGAN-35 05C

ActivoMilitarVLEO
NORAD 53763·PAYLOAD·🇨🇳 China

Lanzado Sep 6, 2022 desde Xichang Satellite Launch Center

Loading…

Próximos Pases (próximas 24 horas)

TLE

ActualizadoSource: Space-Track

Época: Sep 14, 2026, 04:35 UTC

1 53763U 22109D   26257.19109941  .00006991  00000-0  27796-3 0  9993
2 53763  34.9913 156.2929 0003565 326.0328  34.0159 15.24586265223960

Sigue YAOGAN-35 05C en tiempo real con AllMySat

Download on the App Store